Year,Month,Day,Hour,Minute,Value (Times are PST for temperature in C)
2008,12,22,13,06,0.90
2008,12,22,13,07,0.90
2008,12,22,13,08,0.90
2008,12,22,13,09,0.90
2008,12,22,13,10,1.00
2008,12,22,13,11,1.00
2008,12,22,13,12,1.00
2008,12,22,13,13,1.10
2008,12,22,13,14,1.00
2008,12,22,13,15,1.10
2008,12,22,13,16,1.10
2008,12,22,13,17,1.10
2008,12,22,13,18,1.20
2008,12,22,13,19,1.20
2008,12,22,13,20,1.20
2008,12,22,13,21,1.30
2008,12,22,13,22,1.30
2008,12,22,13,23,1.30
2008,12,22,13,24,1.30
2008,12,22,13,25,1.30
2008,12,22,13,26,1.30
2008,12,22,13,27,1.30
2008,12,22,13,28,1.30
2008,12,22,13,29,1.30
2008,12,22,13,30,1.30
2008,12,22,13,31,1.30
2008,12,22,13,32,1.30
2008,12,22,13,33,1.30
2008,12,22,13,34,1.20
2008,12,22,13,35,1.20
2008,12,22,13,36,1.20
2008,12,22,13,37,1.20
2008,12,22,13,38,1.20
2008,12,22,13,39,1.20
2008,12,22,13,40,1.10
2008,12,22,13,41,1.10
2008,12,22,13,42,1.10
2008,12,22,13,43,1.10
2008,12,22,13,44,1.00
2008,12,22,13,45,1.00
2008,12,22,13,46,1.00
2008,12,22,13,47,0.90
2008,12,22,13,48,0.90
2008,12,22,13,49,0.90
2008,12,22,13,50,0.90
2008,12,22,13,51,0.90
2008,12,22,13,52,0.90
2008,12,22,13,53,0.80
2008,12,22,13,54,0.80
2008,12,22,13,55,0.80
2008,12,22,13,56,0.80
2008,12,22,13,57,0.80
2008,12,22,13,58,0.80
2008,12,22,13,59,0.80
2008,12,22,14,00,0.80
2008,12,22,14,01,0.80
2008,12,22,14,02,0.80
2008,12,22,14,03,0.80
2008,12,22,14,04,0.70
2008,12,22,14,05,0.70
2008,12,22,14,06,0.80
2008,12,22,14,07,0.80
2008,12,22,14,08,0.80
2008,12,22,14,09,0.80
2008,12,22,14,10,0.80
2008,12,22,14,11,0.80
2008,12,22,14,12,0.80
2008,12,22,14,13,0.80
2008,12,22,14,14,0.80
2008,12,22,14,15,0.70
2008,12,22,14,16,0.70
2008,12,22,14,17,0.70
2008,12,22,14,18,0.70
2008,12,22,14,19,0.70
2008,12,22,14,20,0.70
2008,12,22,14,21,0.70
2008,12,22,14,22,0.60
2008,12,22,14,23,0.60
2008,12,22,14,24,0.60
2008,12,22,14,25,0.60
2008,12,22,14,26,0.60
2008,12,22,14,27,0.60
2008,12,22,14,28,0.60
2008,12,22,14,29,0.50
2008,12,22,14,30,0.50
2008,12,22,14,31,0.50
2008,12,22,14,32,0.40
2008,12,22,14,33,0.40
2008,12,22,14,34,0.40
2008,12,22,14,35,0.40
2008,12,22,14,36,0.40
2008,12,22,14,37,0.40
2008,12,22,14,38,0.40
2008,12,22,14,39,0.40
2008,12,22,14,40,0.40
2008,12,22,14,41,0.40
2008,12,22,14,42,0.40
2008,12,22,14,43,0.40
2008,12,22,14,44,0.40
2008,12,22,14,45,0.40
2008,12,22,14,46,0.40
2008,12,22,14,47,0.40
2008,12,22,14,48,0.40
2008,12,22,14,49,0.40
2008,12,22,14,50,0.40
2008,12,22,14,51,0.40
2008,12,22,14,52,0.40
2008,12,22,14,53,0.40
2008,12,22,14,54,0.40
2008,12,22,14,55,0.30
2008,12,22,14,56,0.30
2008,12,22,14,57,0.30
2008,12,22,14,58,0.30
2008,12,22,14,59,0.30
2008,12,22,15,00,0.30
2008,12,22,15,01,0.20
2008,12,22,15,02,0.20
2008,12,22,15,03,0.20
2008,12,22,15,04,0.20
2008,12,22,15,05,0.20
2008,12,22,15,06,0.20
2008,12,22,15,07,0.10
2008,12,22,15,08,0.10
2008,12,22,15,09,0.10
2008,12,22,15,10,0.10
2008,12,22,15,11,0.10
2008,12,22,15,12,0.10
2008,12,22,15,13,0.10
2008,12,22,15,14,0.10
2008,12,22,15,15,0.10
2008,12,22,15,16,0.10
2008,12,22,15,17,0.10
2008,12,22,15,18,0.10
2008,12,22,15,19,0.10
2008,12,22,15,20,0.10
2008,12,22,15,21,0.10
2008,12,22,15,22,0.10
2008,12,22,15,23,0.10
2008,12,22,15,24,0.00
2008,12,22,15,25,-0.10
2008,12,22,15,26,-0.10
2008,12,22,15,27,-0.10
2008,12,22,15,28,-0.10
2008,12,22,15,29,-0.10
2008,12,22,15,30,-0.10
2008,12,22,15,31,-0.10
2008,12,22,15,32,-0.10
2008,12,22,15,33,-0.10
2008,12,22,15,34,-0.10
2008,12,22,15,35,-0.10
2008,12,22,15,36,-0.10
2008,12,22,15,37,-0.10
2008,12,22,15,38,-0.10
2008,12,22,15,39,-0.10
2008,12,22,15,40,-0.20
2008,12,22,15,41,-0.20
2008,12,22,15,42,-0.20
2008,12,22,15,43,-0.20
2008,12,22,15,44,-0.30
2008,12,22,15,45,-0.30
2008,12,22,15,46,-0.30
2008,12,22,15,47,-0.30
2008,12,22,15,48,-0.30
2008,12,22,15,49,-0.40
2008,12,22,15,50,-0.40
2008,12,22,15,51,-0.40
2008,12,22,15,52,-0.40
2008,12,22,15,53,-0.40
2008,12,22,15,54,-0.40
2008,12,22,15,55,-0.40
2008,12,22,15,56,-0.40
2008,12,22,15,57,-0.40
2008,12,22,15,58,-0.40
2008,12,22,15,59,-0.40
2008,12,22,16,00,-0.50
2008,12,22,16,01,-0.60
2008,12,22,16,02,-0.60
2008,12,22,16,03,-0.60
2008,12,22,16,04,-0.60
2008,12,22,16,05,-0.60
2008,12,22,16,06,-0.60
2008,12,22,16,07,-0.60
2008,12,22,16,08,-0.60
2008,12,22,16,09,-0.70
2008,12,22,16,10,-0.70
2008,12,22,16,11,-0.70
2008,12,22,16,12,-0.70
2008,12,22,16,13,-0.70
2008,12,22,16,14,-0.70
2008,12,22,16,15,-0.70
2008,12,22,16,16,-0.70
2008,12,22,16,17,-0.70
2008,12,22,16,18,-0.80
2008,12,22,16,19,-0.80
2008,12,22,16,20,-0.80
2008,12,22,16,21,-0.80
2008,12,22,16,22,-0.80
2008,12,22,16,23,-0.80
2008,12,22,16,24,-0.90
2008,12,22,16,25,-0.90
2008,12,22,16,26,-0.90
2008,12,22,16,27,-0.90
2008,12,22,16,28,-0.90
2008,12,22,16,29,-0.90
2008,12,22,16,30,-0.90
2008,12,22,16,31,-0.90
2008,12,22,16,32,-0.90
2008,12,22,16,33,-0.90
2008,12,22,16,34,-0.90
2008,12,22,16,35,-0.90
2008,12,22,16,36,-0.90
2008,12,22,16,37,-1.00
2008,12,22,16,38,-1.10
2008,12,22,16,39,-1.10
2008,12,22,16,40,-1.10
2008,12,22,16,41,-1.10
2008,12,22,16,42,-1.10
2008,12,22,16,43,-1.10
2008,12,22,16,44,-1.10
2008,12,22,16,45,-1.10
2008,12,22,16,46,-1.10
2008,12,22,16,47,-1.10
2008,12,22,16,48,-1.10
2008,12,22,16,49,-1.10
2008,12,22,16,50,-1.10
2008,12,22,16,51,-1.10
2008,12,22,16,52,-1.10
2008,12,22,16,53,-1.10
2008,12,22,16,54,-1.10
2008,12,22,16,55,-1.10
2008,12,22,16,56,-1.10
2008,12,22,16,57,-1.10
2008,12,22,16,58,-1.10
2008,12,22,16,59,-1.10
2008,12,22,17,00,-1.10
2008,12,22,17,01,-1.20
2008,12,22,17,02,-1.20
2008,12,22,17,03,-1.20
2008,12,22,17,04,-1.20
2008,12,22,17,05,-1.20
2008,12,22,17,06,-1.20
2008,12,22,17,07,-1.30
2008,12,22,17,08,-1.30
2008,12,22,17,09,-1.30
2008,12,22,17,10,-1.30
2008,12,22,17,11,-1.30
2008,12,22,17,12,-1.30
2008,12,22,17,13,-1.30
2008,12,22,17,14,-1.30
2008,12,22,17,15,-1.30
2008,12,22,17,16,-1.30
2008,12,22,17,17,-1.30
2008,12,22,17,18,-1.30
2008,12,22,17,19,-1.30
2008,12,22,17,20,-1.30
2008,12,22,17,21,-1.30
2008,12,22,17,22,-1.30
2008,12,22,17,23,-1.30
2008,12,22,17,24,-1.30
2008,12,22,17,25,-1.30
2008,12,22,17,26,-1.30
2008,12,22,17,27,-1.30
2008,12,22,17,28,-1.30
2008,12,22,17,29,-1.30
2008,12,22,17,30,-1.30
2008,12,22,17,31,-1.30
2008,12,22,17,32,-1.30
2008,12,22,17,33,-1.30
2008,12,22,17,34,-1.30
2008,12,22,17,35,-1.30
2008,12,22,17,36,-1.30
2008,12,22,17,37,-1.30
2008,12,22,17,38,-1.30
2008,12,22,17,39,-1.30
2008,12,22,17,40,-1.30
2008,12,22,17,41,-1.30
2008,12,22,17,42,-1.30
2008,12,22,17,43,-1.30
2008,12,22,17,44,-1.30
2008,12,22,17,45,-1.30
2008,12,22,17,46,-1.40
2008,12,22,17,47,-1.40
2008,12,22,17,48,-1.40
2008,12,22,17,49,-1.40
2008,12,22,17,50,-1.40
2008,12,22,17,51,-1.40
2008,12,22,17,52,-1.40
2008,12,22,17,53,-1.40
2008,12,22,17,54,-1.40
2008,12,22,17,55,-1.40
2008,12,22,17,56,-1.40
2008,12,22,17,57,-1.40
2008,12,22,17,58,-1.40
2008,12,22,17,59,-1.40
2008,12,22,18,00,-1.50
2008,12,22,18,01,-1.50
2008,12,22,18,02,-1.50
2008,12,22,18,03,-1.50
2008,12,22,18,04,-1.50
2008,12,22,18,05,-1.40
2008,12,22,18,06,-1.40
2008,12,22,18,07,-1.40
2008,12,22,18,08,-1.40
2008,12,22,18,09,-1.40
2008,12,22,18,10,-1.40
2008,12,22,18,11,-1.40
2008,12,22,18,12,-1.40
2008,12,22,18,13,-1.40
2008,12,22,18,14,-1.40
2008,12,22,18,15,-1.40
2008,12,22,18,16,-1.40
2008,12,22,18,17,-1.40
2008,12,22,18,18,-1.40
2008,12,22,18,19,-1.40
2008,12,22,18,20,-1.40
2008,12,22,18,21,-1.40
2008,12,22,18,22,-1.40
2008,12,22,18,23,-1.40
2008,12,22,18,24,-1.40
2008,12,22,18,25,-1.40
2008,12,22,18,26,-1.40
2008,12,22,18,27,-1.40
2008,12,22,18,28,-1.40
2008,12,22,18,29,-1.40
2008,12,22,18,30,-1.40
2008,12,22,18,31,-1.40
2008,12,22,18,32,-1.40
2008,12,22,18,33,-1.40
2008,12,22,18,34,-1.40
2008,12,22,18,35,-1.40
2008,12,22,18,36,-1.40
2008,12,22,18,37,-1.40
2008,12,22,18,38,-1.40
2008,12,22,18,39,-1.40
2008,12,22,18,40,-1.40
2008,12,22,18,41,-1.40
2008,12,22,18,42,-1.40
2008,12,22,18,43,-1.40
2008,12,22,18,44,-1.40
2008,12,22,18,45,-1.40
2008,12,22,18,46,-1.40
2008,12,22,18,47,-1.40
2008,12,22,18,48,-1.40
2008,12,22,18,49,-1.40
2008,12,22,18,50,-1.40
2008,12,22,18,51,-1.40
2008,12,22,18,52,-1.40
2008,12,22,18,53,-1.40
2008,12,22,18,54,-1.40
2008,12,22,18,55,-1.40
2008,12,22,18,56,-1.50
2008,12,22,18,57,-1.50
2008,12,22,18,58,-1.50
2008,12,22,18,59,-1.50
2008,12,22,19,00,-1.50
2008,12,22,19,01,-1.60
2008,12,22,19,02,-1.60
2008,12,22,19,03,-1.60
2008,12,22,19,04,-1.60
2008,12,22,19,05,-1.60
2008,12,22,19,06,-1.60
2008,12,22,19,07,-1.70
2008,12,22,19,08,-1.70
2008,12,22,19,09,-1.70
2008,12,22,19,10,-1.70
2008,12,22,19,11,-1.70
2008,12,22,19,12,-1.70
2008,12,22,19,13,-1.70
2008,12,22,19,14,-1.70
2008,12,22,19,15,-1.70
2008,12,22,19,16,-1.80
2008,12,22,19,17,-1.80
2008,12,22,19,18,-1.80
2008,12,22,19,19,-1.80
2008,12,22,19,20,-1.80
2008,12,22,19,21,-1.80
2008,12,22,19,22,-1.80
2008,12,22,19,23,-1.80
2008,12,22,19,24,-1.80
2008,12,22,19,25,-1.80
2008,12,22,19,26,-1.80
2008,12,22,19,27,-1.80
2008,12,22,19,28,-1.80
2008,12,22,19,29,-1.80
2008,12,22,19,30,-1.80
2008,12,22,19,31,-1.80
2008,12,22,19,32,-1.80
2008,12,22,19,33,-1.80
2008,12,22,19,34,-1.80
2008,12,22,19,35,-1.80
2008,12,22,19,36,-1.80
2008,12,22,19,37,-1.80
2008,12,22,19,41,-1.80
2008,12,22,19,42,-1.80
2008,12,22,19,43,-1.80
2008,12,22,19,44,-1.80
2008,12,22,19,45,-1.80
2008,12,22,19,46,-1.80
2008,12,22,19,47,-1.80
2008,12,22,19,48,-1.80
2008,12,22,19,49,-1.80
2008,12,22,19,50,-1.80
2008,12,22,19,51,-1.80
2008,12,22,19,52,-1.80
2008,12,22,19,53,-1.80
2008,12,22,19,54,-1.80
2008,12,22,19,55,-1.80
2008,12,22,19,56,-1.80
2008,12,22,19,57,-1.80
2008,12,22,19,58,-1.80
2008,12,22,19,59,-1.80
2008,12,22,20,00,-1.80
2008,12,22,20,01,-1.80
2008,12,22,20,02,-1.80
2008,12,22,20,03,-1.80
2008,12,22,20,04,-1.80
2008,12,22,20,05,-1.80
2008,12,22,20,06,-1.80
2008,12,22,20,07,-1.80
2008,12,22,20,08,-1.80
2008,12,22,20,09,-1.80
2008,12,22,20,10,-1.80
2008,12,22,20,11,-1.80
2008,12,22,20,12,-1.80
2008,12,22,20,13,-1.80
2008,12,22,20,14,-1.80
2008,12,22,20,15,-1.80
2008,12,22,20,16,-1.80
2008,12,22,20,17,-1.80
2008,12,22,20,18,-1.80
2008,12,22,20,19,-1.80
2008,12,22,20,20,-1.80
2008,12,22,20,21,-1.80
2008,12,22,20,22,-1.90
2008,12,22,20,23,-1.90
2008,12,22,20,24,-1.90
2008,12,22,20,25,-1.90
2008,12,22,20,26,-1.90
2008,12,22,20,27,-2.00
2008,12,22,20,28,-2.00
2008,12,22,20,29,-2.00
2008,12,22,20,30,-2.00
2008,12,22,20,31,-2.00
2008,12,22,20,32,-2.00
2008,12,22,20,33,-2.00
2008,12,22,20,34,-2.00
2008,12,22,20,35,-2.10
2008,12,22,20,36,-2.10
2008,12,22,20,37,-2.10
2008,12,22,20,38,-2.10
2008,12,22,20,39,-2.10
2008,12,22,20,40,-2.10
2008,12,22,20,41,-2.10
2008,12,22,20,42,-2.10
2008,12,22,20,43,-2.10
2008,12,22,20,44,-2.10
2008,12,22,20,45,-2.10
2008,12,22,20,46,-2.10
2008,12,22,20,47,-2.20
2008,12,22,20,48,-2.20
2008,12,22,20,49,-2.20
2008,12,22,20,50,-2.20
2008,12,22,20,51,-2.20
2008,12,22,20,52,-2.20
2008,12,22,20,53,-2.20
2008,12,22,20,54,-2.20
2008,12,22,20,55,-2.20
2008,12,22,20,56,-2.20
2008,12,22,20,57,-2.20
2008,12,22,20,58,-2.20
2008,12,22,20,59,-2.20
2008,12,22,21,00,-2.20
2008,12,22,21,01,-2.20
2008,12,22,21,02,-2.20
2008,12,22,21,03,-2.20
2008,12,22,21,04,-2.30
2008,12,22,21,05,-2.30
2008,12,22,21,06,-2.30
2008,12,22,21,07,-2.30
2008,12,22,21,08,-2.30
2008,12,22,21,09,-2.30
2008,12,22,21,10,-2.30
2008,12,22,21,11,-2.30
2008,12,22,21,12,-2.30
2008,12,22,21,13,-2.30
2008,12,22,21,14,-2.30
2008,12,22,21,15,-2.30
2008,12,22,21,16,-2.30
2008,12,22,21,17,-2.30
2008,12,22,21,18,-2.30
2008,12,22,21,19,-2.30
2008,12,22,21,20,-2.30
2008,12,22,21,21,-2.30
2008,12,22,21,22,-2.30
2008,12,22,21,23,-2.30
2008,12,22,21,24,-2.30
2008,12,22,21,25,-2.30
2008,12,22,21,26,-2.30
2008,12,22,21,27,-2.30
2008,12,22,21,28,-2.30
2008,12,22,21,29,-2.30
2008,12,22,21,30,-2.30
2008,12,22,21,31,-2.30
2008,12,22,21,32,-2.30
2008,12,22,21,33,-2.30
2008,12,22,21,34,-2.30
2008,12,22,21,35,-2.30
2008,12,22,21,36,-2.30
2008,12,22,21,37,-2.30
2008,12,22,21,38,-2.30
2008,12,22,21,39,-2.30
2008,12,22,21,40,-2.30
2008,12,22,21,41,-2.30
2008,12,22,21,42,-2.30
2008,12,22,21,43,-2.30
2008,12,22,21,44,-2.30
2008,12,22,21,45,-2.30
2008,12,22,21,46,-2.30
2008,12,22,21,47,-2.30
2008,12,22,21,48,-2.30
2008,12,22,21,49,-2.30
2008,12,22,21,50,-2.30
2008,12,22,21,51,-2.30
2008,12,22,21,52,-2.30
2008,12,22,21,53,-2.30
2008,12,22,21,54,-2.30
2008,12,22,21,55,-2.30
2008,12,22,21,56,-2.30
2008,12,22,21,57,-2.30
2008,12,22,21,58,-2.30
2008,12,22,21,59,-2.30
2008,12,22,22,00,-2.30
2008,12,22,22,01,-2.30
2008,12,22,22,02,-2.30
2008,12,22,22,03,-2.30
2008,12,22,22,04,-2.30
2008,12,22,22,05,-2.30
2008,12,22,22,06,-2.30
2008,12,22,22,07,-2.30
2008,12,22,22,08,-2.30
2008,12,22,22,09,-2.30
2008,12,22,22,10,-2.30
2008,12,22,22,11,-2.30
2008,12,22,22,12,-2.30
2008,12,22,22,13,-2.30
2008,12,22,22,14,-2.30
2008,12,22,22,15,-2.30
2008,12,22,22,16,-2.30
2008,12,22,22,17,-2.30
2008,12,22,22,18,-2.30
2008,12,22,22,19,-2.30
2008,12,22,22,20,-2.30
2008,12,22,22,21,-2.30
2008,12,22,22,22,-2.30
2008,12,22,22,23,-2.30
2008,12,22,22,24,-2.30
2008,12,22,22,25,-2.30
2008,12,22,22,26,-2.30
2008,12,22,22,27,-2.30
2008,12,22,22,28,-2.30
2008,12,22,22,29,-2.30
2008,12,22,22,30,-2.30
2008,12,22,22,33,-2.30
2008,12,22,22,34,-2.30
2008,12,22,22,35,-2.30
2008,12,22,22,36,-2.30
2008,12,22,22,37,-2.40
2008,12,22,22,38,-2.40
2008,12,22,22,39,-2.40
2008,12,22,22,40,-2.40
2008,12,22,22,41,-2.40
2008,12,22,22,42,-2.40
2008,12,22,22,43,-2.40
2008,12,22,22,44,-2.40
2008,12,22,22,45,-2.40
2008,12,22,22,46,-2.50
2008,12,22,22,47,-2.50
2008,12,22,22,48,-2.50
2008,12,22,22,49,-2.50
2008,12,22,22,50,-2.50
2008,12,22,22,51,-2.50
2008,12,22,22,52,-2.50
2008,12,22,22,53,-2.50
2008,12,22,22,54,-2.50
2008,12,22,22,55,-2.60
2008,12,22,22,56,-2.60
2008,12,22,22,57,-2.60
2008,12,22,22,58,-2.60
2008,12,22,22,59,-2.60
2008,12,22,23,00,-2.60
2008,12,22,23,01,-2.70
2008,12,22,23,02,-2.70
2008,12,22,23,03,-2.70
2008,12,22,23,04,-2.70
2008,12,22,23,05,-2.70
2008,12,22,23,06,-2.70
2008,12,22,23,07,-2.80
2008,12,22,23,08,-2.80
2008,12,22,23,09,-2.80
2008,12,22,23,10,-2.80
2008,12,22,23,11,-2.80
2008,12,22,23,12,-2.80
2008,12,22,23,13,-2.80
2008,12,22,23,14,-2.80
2008,12,22,23,15,-2.80
2008,12,22,23,16,-2.80
2008,12,22,23,17,-2.80
2008,12,22,23,18,-2.80
2008,12,22,23,19,-2.90
2008,12,22,23,20,-2.90
2008,12,22,23,21,-2.90
2008,12,22,23,22,-2.90
2008,12,22,23,23,-2.90
2008,12,22,23,24,-2.90
2008,12,22,23,25,-3.00
2008,12,22,23,26,-3.00
2008,12,22,23,27,-3.00
2008,12,22,23,28,-3.00
2008,12,22,23,29,-3.00
2008,12,22,23,30,-3.00
2008,12,22,23,31,-3.00
2008,12,22,23,32,-3.10
2008,12,22,23,33,-3.10
2008,12,22,23,34,-3.10
2008,12,22,23,35,-3.10
2008,12,22,23,36,-3.10
2008,12,22,23,37,-3.10
2008,12,22,23,38,-3.10
2008,12,22,23,39,-3.10
2008,12,22,23,40,-3.10
2008,12,22,23,41,-3.10
2008,12,22,23,42,-3.20
2008,12,22,23,43,-3.20
2008,12,22,23,44,-3.20
2008,12,22,23,45,-3.20
2008,12,22,23,46,-3.20
2008,12,22,23,47,-3.20
2008,12,22,23,48,-3.20
2008,12,22,23,49,-3.20
2008,12,22,23,50,-3.20
2008,12,22,23,51,-3.30
2008,12,22,23,52,-3.30
2008,12,22,23,53,-3.30
2008,12,22,23,54,-3.30
2008,12,22,23,55,-3.30
2008,12,22,23,56,-3.30
2008,12,22,23,57,-3.30
2008,12,22,23,58,-3.30
2008,12,22,23,59,-3.30
